TimePDT,TemperatureF,Dew PointF,Humidity,Sea Level PressureIn,VisibilityMPH,Wind Direction,Wind SpeedMPH,Gust SpeedMPH,PrecipitationIn,Events,Conditions,WindDirDegrees,DateUTC
12:56 AM,71.1,28.0,20,29.94,10.0,West,13.8,-,N/A,,Clear,270,2012-10-03 07:56:00
1:56 AM,62.1,28.0,28,29.96,10.0,East,6.9,-,N/A,,Clear,90,2012-10-03 08:56:00
2:56 AM,57.9,28.0,32,29.96,10.0,Calm,Calm,-,N/A,,Clear,0,2012-10-03 09:56:00
3:56 AM,55.9,28.0,34,29.96,10.0,Calm,Calm,-,N/A,,Clear,0,2012-10-03 10:56:00
4:56 AM,46.9,26.1,44,29.97,10.0,SE,4.6,-,N/A,,Clear,140,2012-10-03 11:56:00
5:56 AM,50.0,34.0,54,29.99,10.0,SSW,4.6,-,N/A,,Clear,210,2012-10-03 12:56:00
6:20 AM,48.2,32.0,54,30.08,10.0,SW,5.8,-,N/A,,Partly Cloudy,220,2012-10-03 13:20:00
6:56 AM,44.1,28.9,55,29.99,10.0,ESE,4.6,-,N/A,,Partly Cloudy,120,2012-10-03 13:56:00
7:56 AM,55.0,30.0,38,30.02,10.0,Calm,Calm,-,N/A,,Partly Cloudy,0,2012-10-03 14:56:00
8:56 AM,64.0,27.0,25,30.02,10.0,NW,3.5,-,N/A,,Partly Cloudy,310,2012-10-03 15:56:00
9:56 AM,68.0,30.0,24,30.02,10.0,Calm,Calm,-,N/A,,Partly Cloudy,0,2012-10-03 16:56:00
10:56 AM,75.0,21.9,14,30.02,10.0,North,6.9,-,N/A,,Partly Cloudy,10,2012-10-03 17:56:00
11:56 AM,78.1,18.0,10,30.01,10.0,NE,3.5,-,N/A,,Partly Cloudy,50,2012-10-03 18:56:00
12:56 PM,79.0,21.9,12,29.99,10.0,Calm,Calm,-,N/A,,Partly Cloudy,0,2012-10-03 19:56:00
1:56 PM,81.0,23.0,12,29.96,10.0,North,5.8,-,N/A,,Partly Cloudy,350,2012-10-03 20:56:00
2:56 PM,84.0,23.0,11,29.95,10.0,Variable,5.8,-,N/A,,Partly Cloudy,0,2012-10-03 21:56:00
3:56 PM,84.0,23.0,11,29.94,10.0,NE,10.4,-,N/A,,Clear,50,2012-10-03 22:56:00
4:56 PM,82.9,24.1,12,29.93,10.0,ENE,9.2,-,N/A,,Clear,60,2012-10-03 23:56:00
5:56 PM,81.0,25.0,13,29.93,10.0,NE,6.9,-,N/A,,Clear,50,2012-10-04 00:56:00
6:56 PM,71.1,28.0,20,29.93,10.0,NNE,6.9,-,N/A,,Clear,20,2012-10-04 01:56:00
7:56 PM,66.0,21.0,18,29.94,10.0,NNE,6.9,-,N/A,,Clear,20,2012-10-04 02:56:00
8:56 PM,61.0,19.9,21,29.96,10.0,NNE,5.8,-,N/A,,Clear,20,2012-10-04 03:56:00
9:56 PM,57.0,18.0,22,29.98,10.0,Calm,Calm,-,N/A,,Clear,0,2012-10-04 04:56:00
10:56 PM,57.0,17.1,21,30.00,10.0,WNW,3.5,-,N/A,,Clear,300,2012-10-04 05:56:00
11:56 PM,55.0,15.1,21,30.01,10.0,Calm,Calm,-,N/A,,Clear,0,2012-10-04 06:56:00